Location: Unspecified
(0.0000°N, 0.0000°E)
Time: 19:24:31
(UTC+00:00)

Vanguard 2 Rocket - Pass Details

Date: 17 December 2017
Orbit: 553 x 3327 km, 32.9° (Epoch: 17 June)

Event Time Altitude Azimuth Distance (km) Brightness Sun altitude
Rises 21:10:02 0° 320° (NW) 5,895 11.1 -43.4°
Reaches altitude 10° 21:15:50 10° 338° (NNW) 5,374 10.7 -44.6°
Enters shadow 21:17:57 13° 345° (NNW) 5,267 10.6 -45.0°
Maximum altitude 21:26:23 19° 17° (NNE) 5,287 - -46.7°
Drops below altitude 10° 21:38:31 10° 54° (NE) 6,282 - -49.2°
Sets 21:46:13 0° 71° (ENE) 7,232 - -50.7°
